Location: Unspecified
(0.0000°N, 0.0000°E)
Time: 22:01:44
(UTC+01:00)

JASON 3 - Pass Details

Date: 09 October 2020
Orbit: 1332 x 1343 km, 66.0° (Epoch: 27 October)

Event Time Altitude Azimuth Distance (km) Brightness Sun altitude
Rises 22:17:34 0° 313° (NW) 4,344 ? -37.3°
Reaches altitude 10° 22:21:02 10° 300° (WNW) 3,372 ? -38.2°
Maximum altitude 22:27:19 25° 249° (WSW) 2,434 ? -39.7°
Drops below altitude 10° 22:33:39 10° 198° (SSW) 3,373 ? -41.3°
Sets 22:37:10 0° 185° (S) 4,346 ? -42.2°
